Regional Weather Roundup
Issued by NWS Portland, ME

Current Version | Previous Version | Text Only | Print | Product List | Glossary Off
Versions: 1 2 3 4 5 6 7 8 9 10 11 12 13 14 15 16 17 18 19 20 21 22 23 24 25 26 27 28 29 30 31 32 33 34 35 36 37 38 39 40 41 42 43 44 45 46 47 48 49 50

978
ASUS41 KGYX 162310
RWRGYX
WEATHER ROUNDUP FOR MAINE AND NEW HAMPSHIRE
NATIONAL WEATHER SERVICE GRAY ME
700 PM EDT MON OCT 16 2017

MEZ002-005-006-010-012-015-018-020-021-024-026-027-029-170000-
MAINE

CITY           SKY/WX    TMP DP  RH WIND       PRES   REMARKS
PORTLAND       CLOUDY    48  35  60 N10       30.03R
SANFORD        MOCLDY    47  37  68 NW7       30.05R
BAR HARBOR     MOCLDY    48  37  65 NW7       30.00R
WISCASSET      CLOUDY    49  36  61 VRB5      30.04R
ROCKLAND       CLOUDY    50  36  58 VRB7      30.01R
FRYEBURG       CLOUDY    45  36  70 CALM      30.07R
LEWISTONAUBURN CLOUDY    45  33  63 NW10      30.06R
AUGUSTA        CLOUDY    46  33  60 NW9       30.05R
WATERVILLE     CLOUDY    45  33  63 N8        30.03R
BANGOR         CLOUDY    47  34  60 NW12      30.03R
GREENVILLE       N/A     39  30  70 NW13G23   29.99R
MILLINOCKET    CLOUDY    46  36  68 NW8       30.02R
HOULTON        CLOUDY    42  34  73 N9        30.00R
PRESQUE ISLE   CLOUDY    41  34  76 NW7       30.03R
FRENCHVILLE    CLOUDY    35  32  88 NW5       30.01R
CARIBOU        CLOUDY    41  32  70 N9        30.01R
$$

NHZ002-005-008-009-011-012-014-170000-
NEW HAMPSHIRE

CITY           SKY/WX    TMP DP  RH WIND       PRES   REMARKS
PORTSMOUTH     MOCLDY    48  35  61 NW12G18   30.03R
ROCHESTER      MOCLDY    47  34  60 NW10G20   30.03R
NASHUA         MOCLDY    48  35  60 N13G18    30.07R
MANCHESTER     CLOUDY    48  34  58 NW9       30.05R
CONCORD        MOCLDY    46  35  65 N13       30.07R
LACONIA        CLOUDY    44  33  65 W12G17    30.09R
PLYMOUTH       CLOUDY    44  32  64 NW12G24   30.11R
BERLIN         CLOUDY    41  31  67 NW6G24    30.09R
WHITEFIELD     CLOUDY    41  32  70 NW8       30.11R
JAFFREY        CLOUDY    47  37  68 CALM      30.06R
KEENE          CLOUDY    47  36  65 N9        30.08R
LEBANON        PTCLDY    45  32  60 N9        30.11R
MT WASHINGTON  FOG       19  19 100 W33         N/A  VSB 1/16WCI   0
$$

VTZ005-007-008-170000-
VERMONT

CITY           SKY/WX    TMP DP  RH WIND       PRES   REMARKS
ST JOHNSBURY     N/A     42  32  67 MISG      30.11R
MONTPELIER     CLOUDY    40  33  76 NW5       30.15R
BURLINGTON     CLOUDY    46  34  62 NW10      30.15R
$$

MAZ007-012-024-CTZ003-RIZ002-NYZ038-NYZ072-170000-
SOUTHERN NEW ENGLAND AND NY

CITY           SKY/WX    TMP DP  RH WIND       PRES   REMARKS
BOSTON         CLOUDY    52  36  54 NW20G25   30.04R
WORCESTER      MOCLDY    46  33  60 NW8       30.05R
NANTUCKET      CLOUDY    55  47  74 N14       30.00R
PROVIDENCE     CLOUDY    53  38  56 N15G22    30.06R
HARTFORD       CLOUDY    50  37  61 NW10      30.08R
ALBANY         PTCLDY    48  30  49 W12       30.13R
NEW YORK CITY  MOCLDY    57  40  52 NW17      30.09R
$$

ANZ081-ANZ082-ANZ150-NHZ014-MEZ023>029-170000-
COASTAL MARINE OBSERVATIONS

STATION/POSITION TIME  TEMP    WIND        PRES    WAVE
                       AIR SEA DIR/SP/G            HT/PER
                 (UTC) (F)     (DEG/KT/KT) (MB)    (FT/S)
MOUNT DESERT ROC 2300   53     320/ 21/ 23 1014.9R
MATINICUS ROCK   2200   53     360/ 10/ 10 1014.6R
ISLE OF SHOALS   2200   51     310/ 22/ 24 1015.4R
JEFFREYS LEDGE   2236      60                N/A     4/ 5
CASHES LEDGE BUO 2250   53 56              1015.0R   4/ 4
GEORGES BANK BUO 2150   60 60              1011.1    7/ 8
$$

.............KEY..............
   WCI - WIND CHILL
   TC  - TEMPERATURE IN CELSIUS
   VSB - VISIBILITY IN MILES
   HX  - HEAT INDEX
   FAIR- INDICATES FEW OR NO CLOUDS BELOW 12,000 FT, WITH NO
         SIGNIFICANT WEATHER AND/OR OBSTRUCTIONS TO VISIBILITY.






USA.gov is the U.S. government's official web portal to all federal, state and local government web resources and services.